Volver al catálogo

COSMOS 1275 DEB

ActivoPO
NORAD 42134·DEBRIS·🇷🇺 Russia

Lanzado Jun 4, 1981 desde Plesetsk Cosmodrome

Loading…

Próximos Pases (próximas 24 horas)

TLE

ActualizadoSource: Space-Track

Época: Sep 13, 2026, 10:26 UTC

1 42134U 81053QW  26256.43491966  .00000341  00000-0  41823-3 0  9993
2 42134  83.0084 155.4855 0178559 359.2240   0.8601 13.56540614587495

Sigue COSMOS 1275 DEB en tiempo real con AllMySat

Download on the App Store